STARLINK-32494, 62053

Orbit data source: Space-Track

STARLINK-32494, 62053 is a payload satellite owned by SpaceX/Seattle (US) in LEO that was launched on Thu, 21 Nov 2024 UTC via an FALCON 9 launch vehicle from the Air Force Eastern Test Range (AFETR). Payload-class satellites include a variety of spacecraft equipped with specific instruments for various scientific and technological missions. These include communications satellites like Starlink; space stations such as the ISS; scientific satellites like the Hubble; Earth observation satellites from companies like Planet Labs, Umbra, and HawkEye 360; GPS; miniature CubeSats for education and research; and military/defense satellites.

Loading next visibility...
Identifier
62053, 2024-216X
Orbit
LEO
Country
Flag of USUS
Related business
Manufacturer
SpaceX/Seattle
Mission
Operational Commercial Communications
Bus & Motor
STARLINK V2M, Unknown motor
Mass
730 kg wet, ~700 kg dry
Launch date (UTC)
2024-11-21 (2 years ago)
Launch vehicle
FALCON 9
Launch site
Air Force Eastern Test Range (AFETR)
Object type
Payload
Rocket body
Debris
Shape & HBR
Box + 2 Pan, 17.7 m
Radar Cross Section
33.884 m², Large (>1 m²)

Expand to show TLE details & history
Last TLE update: 12 hours ago

TLE from 12 hours ago
0 STARLINK-32494
1 62053U 24216X   26256.08453958  .00010206  00000-0  37982-3 0  9995
2 62053  42.9997 285.0754 0001473 250.2212 109.8481 15.27586378102453
Epoch: 2026-09-13T02:01Z
TLE epoch observation values (Epoch: 2026-09-13T02:01:44.219Z)
Latitude
-0.00002°
Longitude
-97.44313°
Altitude
483.149 km
Speed
7.625 km/s
True Right ascension
19h 00m 18s
True Declination
0° 00' 00"
Sunlit
Object was in full shadow at epoch
Visualization orbit readout
Latitude
Unknown
Longitude
Unknown
Altitude
Unknown
Speed
Unknown
Apparent Right ascension
Unknown
Apparent Declination
Unknown
Sunlit
N/A
Visualization observer readout
Local Sidereal Time
06:51:56
Azimuth
Unknown
Elevation
Unknown
Doppler factor
Unknown
Orbital elements
Apogee altitude
485.986 km
Perigee altitude
483.964 km
Semi-major axis
6,863.112 km
Eccentricity
0.00015
Inclination
42.9997°
RAAN
285.0754°
Arg. of periapsis
250.2212°
True anomaly
109.86398°
Mean anomaly
109.8481°
Eccentric anomaly
109.85604°
Mean motion
3.81735 °/min
Orbital period
94.31 mins
BSTAR
0.00037982
Loading maneuver chart data...
Computing Atmospheric mass density...
Loading historical data...
Loading historical data...
Loading historical data...
Loading historical data...
Loading historical data...
Loading historical data...
Loading historical data...

Documentation

Showing up to 5 results
|